Weather in Stepanovskoe

Russia / Moscow Oblast     55˚46′38″N   37˚08′36″E
temp.,
°C
wind,
m/s
gust,
m/s
humid.,
%
clouds,
%
prec.,
mm/h
press.,
hPa
HPBL,
m
16 january, sat
sat1600:00−20˚n2596100 0.0 1012136
03:00−18˚n3695100 0.0 1011230
06:00−18˚nnw3796100 0.0 1009248
09:00−18˚nnw4897100 0.8 1008282
12:00−17˚nnw51096100 0.9 1007351
15:00−16˚nnw51095100 2.3 1007437
18:00−16˚nnw51095100 1.9 1007493
21:00−17˚nnw4993100 3.3 1008536
17 january, sun
sun1700:00−18˚nnw4993100 0.1 1009448
03:00−21˚nnw3995100 0.1 1011378
06:00−24˚nnw269798 0.0 1012135
09:00−27˚nnw239772 0.0 101469
12:00−23˚nnw259538 0.0 1016242
15:00−21˚nnw249658 0.0 1017236
18:00−24˚nnw229713 0.0 101820
21:00−25˚n22977 0.0 102020
18 january, mon
mon1800:00−25˚nnw12970 0.0 102019
03:00−25˚nw11970 0.0 102020
06:00−25˚wsw12970 0.0 102020
09:00−25˚w12987 0.0 102120
12:00−19˚sw119466 0.0 102085
15:00−18˚w119564 0.0 101920
18:00−22˚wnw129635 0.0 101920
21:00−22˚sw129564 0.0 101920
19 january, tue
tue1900:00−22˚wsw119798 0.0 101920
03:00−22˚wnw119989 0.0 101920
06:00−20˚sw1199100 0.0 101820
09:00−18˚w119899 0.1 101920
12:00−15˚nw119496 0.1 1019167
15:00−13˚nw129597 0.2 1019200
18:00−16˚nnw129779 0.1 102020
21:00−18˚n119982 0.1 102120
20 january, wed
wed2000:00−19˚nw1110091 0.0 102220
03:00−19˚w129986 0.1 102320
06:00−19˚w129962 0.0 102420
09:00−19˚sw129960 0.0 102420
12:00−15˚sw249548 0.0 1025160
15:00−13˚ssw249568 0.0 1024195
18:00−17˚ssw339651 0.0 102473
21:00−17˚ssw399648 0.0 1024198